Location: Unspecified
(47.2333°N, 0.0000°E)
Time: 02:07:31
(UTC+00:00)

Tiros 1 - Visible Passes

Search period start: 05 April 2026 00:00
Search period end: 15 April 2026 00:00
Orbit: 618 x 650 km, 48.4° (Epoch: 28 March)

Date Brightness Start Highest point End Pass type
(mag) Time Alt. Az. Time Alt. Az. Time Alt. Az.
5 Apr 8.1 20:25:47 10° W 20:30:07 37° SSW 20:31:42 28° S visible
6 Apr 7.4 19:05:19 10° WNW 19:09:59 67° SSW 19:14:42 10° ESE visible
6 Apr 8.8 20:47:48 10° W 20:51:22 21° SW 20:52:25 20° SSW visible
7 Apr 8.0 19:26:58 10° W 19:31:25 43° SSW 19:35:48 10° SE visible
7 Apr 9.6 21:11:05 10° WSW 21:12:26 11° SW 21:13:12 11° SW visible
8 Apr 8.8 19:48:51 10° W 19:52:42 25° SW 19:56:34 10° SSE visible
9 Apr 9.5 20:11:26 10° WSW 20:13:49 14° SW 20:16:12 10° SSW visible
11 Apr 9.5 19:12:11 10° W 19:15:11 17° SW 19:18:12 10° S visible
